Terminal Aerodrome Forecast
Issued by NWS Austin/San Antonio, TX

Home | Current Version | Previous Version | Text Only | Print | Product List | Glossary On
Versions: 1 2 3 4 5 6 7 8 9 10 11 12 13 14 15 16 17 18 19 20
000
FTUS44 KEWX 220500
TAFDRT
TAF
KDRT 220522Z 2206/2306 13008KT P6SM SKC
     FM221100 12010G20KT P6SM SCT020
     FM221600 14012G22KT P6SM FEW040
     FM230100 13010KT P6SM FEW040=

USA.gov is the U.S. government's official web portal to all federal, state and local government web resources and services.